ALSAT 1B

Last updated on Sat Jun 14 2025 00:02:29 GMT+0000 (Coordinated Universal Time)

1 41785U 16059C 25164.55398705 .00000478 00000+0 84029-4 0 9991 2 41785 97.7879 184.0957 0008757 339.9907 20.0956 14.71838608466346
UTC large
Height (km)
Speed (km/s)
/
Latitude / Longitude
Inclination (degrees)
Orbital Period (minutes)
Azimuth
Elevation
Range (km)
Doppler Factor

Next 0 passes for location: London (51.5072 / 0.1276)

Sorry there are no passes over London.